Location: Newark
(25.4800°N, 85.7200°E)
Time: 15:09:31
(UTC+00:00)

Vanguard 1 Rocket - Pass Details

Date: 26 August 2019
Orbit: 652 x 4225 km, 34.3° (Epoch: 15 September)

Event Time Altitude Azimuth Distance (km) Brightness Sun altitude
Rises 21:13:06 0° 290° (WNW) 2,963 - -34.6°
Reaches altitude 10° 21:15:29 10° 302° (WNW) 2,057 - -34.1°
Maximum altitude 21:19:28 31° 6° (N) 1,276 - -33.4°
Exits shadow 21:19:51 30° 15° (NNE) 1,306 8.5 -33.3°
Drops below altitude 10° 21:24:34 10° 68° (ENE) 2,670 10.6 -32.4°
Sets 21:28:09 0° 78° (ENE) 4,043 11.7 -31.7°
